| time (UTC) | temp F | wind direction | speed MPH | gust MPH | rain 1hr in | rain 24hr in | rain mn in | humidity % | barometer mb |
| 20260905162902 | 70 | 310 | 14.0 | 0.0 | 0.00 | 0.00 | 0.00 | 43 | 1020.0 |
| 20260905162217 | 70 | 320 | 14.0 | 0.0 | 0.00 | 0.00 | 0.00 | 43 | |
| 20260905162203 | 70 | 310 | 14.0 | 0.0 | 0.00 | 0.00 | 0.00 | 43 | 1020.0 |
| 20260905161603 | 70 | 310 | 14.0 | 0.0 | 0.00 | 0.00 | 0.00 | 43 | 1020.0 |
| 20260905161103 | 70 | 310 | 14.0 | 0.0 | 0.00 | 0.00 | 0.00 | 43 | 1020.0 |
| 20260905160803 | 70 | 310 | 14.0 | 0.0 | 0.00 | 0.00 | 0.00 | 43 | 1020.0 |
| 20260905160302 | 70 | 310 | 14.0 | 0.0 | 0.00 | 0.00 | 0.00 | 43 | 1020.0 |
| 20260905154703 | 70 | 310 | 14.0 | 0.0 | 0.00 | 0.00 | 0.00 | 43 | 1019.0 |
| 20260905154503 | 70 | 310 | 14.0 | 0.0 | 0.00 | 0.00 | 0.00 | 43 | 1019.0 |
| 20260905154203 | 70 | 310 | 14.0 | 0.0 | 0.00 | 0.00 | 0.00 | 43 | 1019.0 |
| 20260905151807 | 72 | 300 | 16.0 | 28.0 | 0.00 | 0.00 | 0.00 | 40 | 1019.0 |
| 20260905151710 | 72 | 290 | 18.0 | 0.0 | 0.00 | 0.00 | 0.00 | 37 | |
| 20260905151104 | 72 | 300 | 16.0 | 28.0 | 0.00 | 0.00 | 0.00 | 40 | 1019.0 |
| 20260905150602 | 72 | 300 | 16.0 | 28.0 | 0.00 | 0.00 | 0.00 | 40 | 1019.0 |
| 20260905145902 | 72 | 270 | 21.0 | 32.0 | 0.00 | 0.00 | 0.00 | 37 | 1019.0 |
| 20260905145603 | 72 | 270 | 21.0 | 32.0 | 0.00 | 0.00 | 0.00 | 37 | 1019.0 |
| 20260905145102 | 72 | 270 | 21.0 | 32.0 | 0.00 | 0.00 | 0.00 | 37 | 1019.0 |
| 20260905144202 | 72 | 270 | 18.0 | 0.0 | 0.00 | 0.00 | 0.00 | 37 | 1019.0 |
| 20260905143703 | 72 | 270 | 18.0 | 0.0 | 0.00 | 0.00 | 0.00 | 37 | 1019.0 |
| 20260905142102 | 72 | 280 | 20.0 | 0.0 | 0.00 | 0.00 | 0.00 | 37 | 1019.0 |
| 20260905141711 | 72 | 290 | 16.0 | 0.0 | 0.00 | 0.00 | 0.00 | 37 | |
| 20260905140408 | 72 | 280 | 20.0 | 0.0 | 0.00 | 0.00 | 0.00 | 37 | 1019.0 |
| 20260905140103 | 70 | 280 | 17.0 | 0.0 | 0.00 | 0.00 | 0.00 | 43 | 1019.0 |
| 20260905135004 | 70 | 280 | 17.0 | 0.0 | 0.00 | 0.00 | 0.00 | 43 | 1019.0 |
| 20260905134602 | 70 | 280 | 17.0 | 0.0 | 0.00 | 0.00 | 0.00 | 43 | 1019.0 |
| 20260905134203 | 70 | 280 | 17.0 | 0.0 | 0.00 | 0.00 | 0.00 | 43 | 1019.0 |
| 20260905133803 | 70 | 280 | 17.0 | 0.0 | 0.00 | 0.00 | 0.00 | 43 | 1019.0 |
| 20260905133409 | 70 | 280 | 17.0 | 0.0 | 0.00 | 0.00 | 0.00 | 43 | 1019.0 |
| 20260905133213 | 70 | 280 | 17.0 | 0.0 | 0.00 | 0.00 | 0.00 | 43 | 1019.0 |
| 20260905133102 | 72 | 280 | 20.0 | 0.0 | 0.00 | 0.00 | 0.00 | 43 | 1019.0 |
| 20260905132205 | 72 | 280 | 20.0 | 0.0 | 0.00 | 0.00 | 0.00 | 43 | 1019.0 |
| 20260905132002 | 72 | 270 | 16.0 | 0.0 | 0.00 | 0.00 | 0.00 | 40 | |
| 20260905131602 | 72 | 280 | 20.0 | 0.0 | 0.00 | 0.00 | 0.00 | 43 | 1019.0 |
| 20260905131103 | 72 | 280 | 20.0 | 0.0 | 0.00 | 0.00 | 0.00 | 43 | 1019.0 |
| 20260905130703 | 72 | 280 | 20.0 | 0.0 | 0.00 | 0.00 | 0.00 | 43 | 1019.0 |
| 20260905130203 | 72 | 280 | 20.0 | 0.0 | 0.00 | 0.00 | 0.00 | 43 | 1019.0 |
| 20260905125602 | 70 | 260 | 17.0 | 0.0 | 0.00 | 0.00 | 0.00 | 43 | 1019.0 |
| 20260905125403 | 70 | 260 | 17.0 | 0.0 | 0.00 | 0.00 | 0.00 | 43 | 1019.0 |
| 20260905125203 | 70 | 260 | 17.0 | 0.0 | 0.00 | 0.00 | 0.00 | 43 | 1019.0 |
| 20260905124902 | 70 | 260 | 17.0 | 0.0 | 0.00 | 0.00 | 0.00 | 43 | 1019.0 |
| 20260905124503 | 70 | 260 | 17.0 | 0.0 | 0.00 | 0.00 | 0.00 | 43 | 1019.0 |
| 20260905124003 | 70 | 260 | 17.0 | 0.0 | 0.00 | 0.00 | 0.00 | 43 | 1019.0 |
| 20260905123603 | 70 | 260 | 17.0 | 0.0 | 0.00 | 0.00 | 0.00 | 43 | 1019.0 |
| 20260905123302 | 70 | 260 | 17.0 | 0.0 | 0.00 | 0.00 | 0.00 | 43 | 1019.0 |
| 20260905123103 | 70 | 280 | 16.0 | 0.0 | 0.00 | 0.00 | 0.00 | 43 | 1019.0 |
| 20260905122103 | 70 | 280 | 16.0 | 0.0 | 0.00 | 0.00 | 0.00 | 43 | 1019.0 |
| 20260905121913 | 70 | 280 | 18.0 | 0.0 | 0.00 | 0.00 | 0.00 | 43 | |
| 20260905121707 | 70 | 280 | 16.0 | 0.0 | 0.00 | 0.00 | 0.00 | 43 | 1019.0 |
| 20260905121102 | 70 | 280 | 16.0 | 0.0 | 0.00 | 0.00 | 0.00 | 43 | 1019.0 |
| 20260905120504 | 70 | 280 | 16.0 | 0.0 | 0.00 | 0.00 | 0.00 | 43 | 1019.0 |
| 20260905115802 | 68 | 270 | 18.0 | 0.0 | 0.00 | 0.00 | 0.00 | 49 | 1020.0 |
| 20260905114002 | 68 | 270 | 18.0 | 0.0 | 0.00 | 0.00 | 0.00 | 49 | 1020.0 |
| 20260905113202 | 68 | 270 | 18.0 | 0.0 | 0.00 | 0.00 | 0.00 | 49 | 1020.0 |
| 20260905112702 | 68 | 260 | 20.0 | 0.0 | 0.00 | 0.00 | 0.00 | 45 | 1020.0 |
| 20260905112202 | 68 | 260 | 20.0 | 0.0 | 0.00 | 0.00 | 0.00 | 45 | 1020.0 |
| 20260905111810 | 68 | 270 | 18.0 | 0.0 | 0.00 | 0.00 | 0.00 | 45 | |
| 20260905111803 | 68 | 260 | 20.0 | 0.0 | 0.00 | 0.00 | 0.00 | 45 | 1020.0 |
| 20260905110201 | 68 | 260 | 20.0 | 0.0 | 0.00 | 0.00 | 0.00 | 45 | 1020.0 |
| 20260905105202 | 68 | 260 | 18.0 | 0.0 | 0.00 | 0.00 | 0.00 | 52 | 1019.0 |
| 20260905105003 | 68 | 260 | 18.0 | 0.0 | 0.00 | 0.00 | 0.00 | 52 | 1019.0 |
| 20260905104603 | 68 | 260 | 18.0 | 0.0 | 0.00 | 0.00 | 0.00 | 52 | 1019.0 |
| 20260905104303 | 68 | 260 | 18.0 | 0.0 | 0.00 | 0.00 | 0.00 | 52 | 1019.0 |
| 20260905103203 | 68 | 260 | 18.0 | 0.0 | 0.00 | 0.00 | 0.00 | 52 | 1019.0 |
| 20260905102803 | 64 | 260 | 17.0 | 0.0 | 0.00 | 0.00 | 0.00 | 59 | 1019.0 |
| 20260905102223 | 66 | 270 | 16.0 | 0.0 | 0.00 | 0.00 | 0.00 | 52 | |
| 20260905101902 | 64 | 260 | 17.0 | 0.0 | 0.00 | 0.00 | 0.00 | 59 | 1019.0 |
| 20260905101403 | 64 | 260 | 17.0 | 0.0 | 0.00 | 0.00 | 0.00 | 59 | 1019.0 |
| 20260905100803 | 64 | 260 | 17.0 | 0.0 | 0.00 | 0.00 | 0.00 | 59 | 1019.0 |
| 20260905100302 | 64 | 260 | 17.0 | 0.0 | 0.00 | 0.00 | 0.00 | 59 | 1019.0 |
| 20260905095203 | 64 | 250 | 15.0 | 0.0 | 0.00 | 0.00 | 0.00 | 67 | 1020.0 |
| 20260905094803 | 64 | 250 | 15.0 | 0.0 | 0.00 | 0.00 | 0.00 | 67 | 1020.0 |
| 20260905094202 | 64 | 250 | 15.0 | 0.0 | 0.00 | 0.00 | 0.00 | 67 | 1020.0 |
| 20260905093703 | 64 | 250 | 15.0 | 0.0 | 0.00 | 0.00 | 0.00 | 67 | 1020.0 |
| 20260905092403 | 64 | 260 | 15.0 | 0.0 | 0.00 | 0.00 | 0.00 | 67 | 1020.0 |
| 20260905091908 | 64 | 260 | 15.0 | 0.0 | 0.00 | 0.00 | 0.00 | 67 | 1020.0 |
| 20260905091813 | 64 | 260 | 14.0 | 0.0 | 0.00 | 0.00 | 0.00 | 63 | |
| 20260905090803 | 64 | 260 | 15.0 | 0.0 | 0.00 | 0.00 | 0.00 | 67 | 1020.0 |
| 20260905090202 | 64 | 260 | 15.0 | 0.0 | 0.00 | 0.00 | 0.00 | 67 | 1020.0 |
| 20260905084202 | 63 | 250 | 15.0 | 0.0 | 0.00 | 0.00 | 0.00 | 77 | 1020.0 |
| 20260905083203 | 63 | 250 | 15.0 | 0.0 | 0.00 | 0.00 | 0.00 | 77 | 1020.0 |
| 20260905081805 | 61 | 250 | 14.0 | 0.0 | 0.00 | 0.00 | 0.00 | 77 | |
| 20260905080203 | 61 | 240 | 17.0 | 0.0 | 0.00 | 0.00 | 0.00 | 77 | 1019.0 |
| 20260905073202 | 61 | 240 | 18.0 | 0.0 | 0.00 | 0.00 | 0.00 | 77 | 1019.0 |
| 20260905072107 | 59 | 240 | 18.0 | 0.0 | 0.00 | 0.00 | 0.00 | 82 | |
| 20260905070203 | 59 | 240 | 20.0 | 0.0 | 0.00 | 0.00 | 0.00 | 82 | 1019.0 |
| 20260905063203 | 59 | 240 | 17.0 | 0.0 | 0.00 | 0.00 | 0.00 | 82 | 1019.0 |
| 20260905061806 | 57 | 240 | 16.0 | 0.0 | 0.00 | 0.00 | 0.00 | 87 | |
| 20260905060202 | 57 | 240 | 16.0 | 0.0 | 0.00 | 0.00 | 0.00 | 87 | 1019.0 |
| 20260905053202 | 57 | 230 | 12.0 | 0.0 | 0.00 | 0.00 | 0.00 | 87 | 1018.0 |
| 20260905051806 | 55 | 250 | 7.0 | 0.0 | 0.00 | 0.00 | 0.00 | 93 | |
| 20260905050203 | 55 | 250 | 8.0 | 0.0 | 0.00 | 0.00 | 0.00 | 93 | 1018.0 |
| 20260905043202 | 57 | 250 | 10.0 | 0.0 | 0.00 | 0.00 | 0.00 | 87 | 1017.0 |
| 20260905042210 | 57 | 210 | 18.0 | 0.0 | 0.00 | 0.00 | 0.00 | 82 | |
| 20260905040202 | 57 | 210 | 15.0 | 0.0 | 0.00 | 0.00 | 0.00 | 87 | 1016.0 |
| 20260905033203 | 57 | 220 | 13.0 | 0.0 | 0.00 | 0.00 | 0.00 | 87 | 1017.0 |
| 20260905032207 | 57 | 240 | 13.0 | 0.0 | 0.00 | 0.00 | 0.00 | 87 | 1017.0 |
| 20260905031806 | 59 | 240 | 14.0 | 0.0 | 0.00 | 0.00 | 0.00 | 77 | |
| 20260905030203 | 59 | 240 | 16.0 | 0.0 | 0.00 | 0.00 | 0.00 | 77 | 1017.0 |
| 20260905024003 | 61 | 260 | 14.0 | 0.0 | 0.00 | 0.00 | 0.00 | 67 | 1017.0 |
| 20260905023203 | 59 | 260 | 14.0 | 0.0 | 0.00 | 0.00 | 0.00 | 72 | 1017.0 |
| 20260905021805 | 59 | 250 | 12.0 | 0.0 | 0.00 | 0.00 | 0.00 | 72 | |
| 20260905020203 | 59 | 250 | 13.0 | 0.0 | 0.00 | 0.00 | 0.00 | 77 | 1016.0 |
| 20260905013202 | 61 | 270 | 9.0 | 0.0 | 0.00 | 0.00 | 0.00 | 67 | 1016.0 |
| 20260905012107 | 63 | 290 | 14.0 | 0.0 | 0.00 | 0.00 | 0.00 | 59 | |
| 20260905010703 | 63 | 280 | 15.0 | 0.0 | 0.00 | 0.00 | 0.00 | 59 | 1015.0 |
| 20260905010203 | 64 | 280 | 14.0 | 25.0 | 0.00 | 0.00 | 0.00 | 59 | 1015.0 |
| 20260905003203 | 63 | 290 | 10.0 | 0.0 | 0.00 | 0.00 | 0.00 | 67 | 1015.0 |
| 20260905001819 | 64 | 310 | 16.0 | 0.0 | 0.00 | 0.00 | 0.00 | 59 | |
| 20260905000204 | 64 | 300 | 14.0 | 30.0 | 0.00 | 0.00 | 0.00 | 63 | 1015.0 |
| 20260904233202 | 64 | 320 | 18.0 | 30.0 | 0.00 | 0.00 | 0.00 | 67 | 1015.0 |
| 20260904231851 | 63 | 350 | 14.0 | 0.0 | 0.00 | 0.00 | 0.00 | 72 | |
| 20260904230203 | 63 | 360 | 12.0 | 28.0 | 0.00 | 0.00 | 0.00 | 77 | 1015.0 |
| 20260904223203 | 63 | 10 | 16.0 | 0.0 | 0.00 | 0.00 | 0.00 | 72 | 1014.0 |
| 20260904222408 | 63 | 20 | 16.0 | 0.0 | 0.00 | 0.00 | 0.00 | 72 | 1014.0 |
| 20260904222238 | 64 | 20 | 12.0 | 0.0 | 0.00 | 0.00 | 0.00 | 67 | |
| 20260904220203 | 64 | 20 | 9.0 | 0.0 | 0.00 | 0.00 | 0.00 | 67 | 1012.0 |
| 20260904213202 | 66 | 30 | 7.0 | 0.0 | 0.00 | 0.00 | 0.00 | 68 | 1012.0 |
| 20260904211822 | 73 | 250 | 12.0 | 0.0 | 0.00 | 0.00 | 0.00 | 56 | |
| 20260904210202 | 73 | 350 | 8.0 | 0.0 | 0.00 | 0.00 | 0.00 | 56 | 1011.0 |
| 20260904203202 | 75 | 240 | 13.0 | 0.0 | 0.00 | 0.00 | 0.00 | 53 | 1011.0 |
| 20260904201822 | 75 | 240 | 12.0 | 0.0 | 0.00 | 0.00 | 0.00 | 53 | |
| 20260904200204 | 75 | 240 | 10.0 | 0.0 | 0.00 | 0.00 | 0.00 | 53 | 1011.0 |
| 20260904193202 | 75 | 240 | 10.0 | 0.0 | 0.00 | 0.00 | 0.00 | 53 | 1011.0 |
| 20260904192107 | 75 | 250 | 7.0 | 0.0 | 0.00 | 0.00 | 0.00 | 53 | |
| 20260904190203 | 75 | 240 | 12.0 | 0.0 | 0.00 | 0.00 | 0.00 | 53 | 1011.0 |
| 20260904183202 | 77 | 230 | 13.0 | 0.0 | 0.00 | 0.00 | 0.00 | 50 | 1011.0 |
| 20260904181821 | 79 | 230 | 14.0 | 0.0 | 0.00 | 0.00 | 0.00 | 47 | |
| 20260904180203 | 79 | 220 | 14.0 | 0.0 | 0.00 | 0.00 | 0.00 | 47 | 1011.0 |
| 20260904173202 | 79 | 250 | 14.0 | 0.0 | 0.00 | 0.00 | 0.00 | 47 | 1011.0 |
| 20260904171822 | 81 | 260 | 14.0 | 0.0 | 0.00 | 0.00 | 0.00 | 44 | |
| 20260904170204 | 81 | 250 | 16.0 | 0.0 | 0.00 | 0.00 | 0.00 | 47 | 1011.0 |
| 20260904163202 | 81 | 250 | 20.0 | 0.0 | 0.00 | 0.00 | 0.00 | 44 | 1011.0 |